{"data":{"norad_id":62270,"intl_designator":"2024-237D","name":"STARLINK-11479 [DTC]","alt_names":[],"object_type":"PAYLOAD","status":"ACTIVE","operator":null,"country":"US","launch_date":"2024-12-08","launch_site_code":"AFETR","launch_vehicle":null,"mission":null,"orbit_class":"UNKNOWN","rcs_meters":null,"size_class":null,"mass_kg":null,"dimensions":null,"purposes":["comms"],"wikipedia_slug":null,"has_3d_model":false,"image_url":null,"decayed_at":null,"tle_current":{"epoch":"2026-09-21T14:25:30.999072Z","epoch_age_seconds":82585,"freshness":"FRESH","line1":"1 62270U 24237D   26264.60105323  .00165487  00000+0  12667-2 0  9999","line2":"2 62270  42.9976 315.7557 0000832 210.7236 149.3583 15.70858614103869","mean_motion":15.70858614,"eccentricity":8.32e-5,"inclination_deg":42.9976,"raan_deg":315.7557,"arg_perigee_deg":210.7236,"mean_anomaly_deg":149.3583,"bstar":0.0012667,"rev_number":10386,"period_min":91.669612221384,"perigee_km":355.88154283711,"apogee_km":357.00217675938,"semimajor_km":6734.5788597982,"source":"CELESTRAK","updated_at":"2026-09-22T09:00:49.566147Z"}}}